Location: Équennes
(49.7375°N, 1.9622°E)
Time: 10:20:47
(UTC+00:00)

Cosmos 1656 - Pass Details

Date: 04 October 2023
Orbit: 797 x 849 km, 71.1° (Epoch: 10 December)

Event Time Altitude Azimuth Distance (km) Brightness Sun altitude
Rises 22:20:43 0° 330° (NNW) 3,318 7.6 -41.7°
Reaches altitude 10° 22:23:07 10° 331° (NNW) 2,388 6.7 -41.9°
Enters shadow 22:24:19 17° 330° (NNW) 1,933 6.1 -42.0°
